TimeEST,TemperatureF,Dew PointF,Humidity,Sea Level PressureIn,VisibilityMPH,Wind Direction,Wind SpeedMPH,Gust SpeedMPH,PrecipitationIn,Events,Conditions,WindDirDegrees,DateUTC
12:17 AM,30.2,28.4,93,29.90,5.0,WNW,11.5,-,N/A,,Overcast,290,2012-12-11 05:17:00
12:40 AM,30.2,28.4,93,29.90,4.0,West,11.5,-,N/A,,Overcast,280,2012-12-11 05:40:00
12:54 AM,30.9,28.9,92,29.98,4.0,West,12.7,-,N/A,,Overcast,280,2012-12-11 05:54:00
1:54 AM,30.9,28.9,92,29.99,5.0,West,11.5,-,N/A,,Overcast,260,2012-12-11 06:54:00
2:54 AM,30.9,28.9,92,30.00,6.0,West,8.1,-,N/A,,Overcast,280,2012-12-11 07:54:00
3:54 AM,30.9,30.0,96,30.02,5.0,West,12.7,-,N/A,,Overcast,260,2012-12-11 08:54:00
4:54 AM,30.9,30.0,96,30.04,4.0,West,8.1,-,N/A,,Overcast,270,2012-12-11 09:54:00
5:36 AM,32.0,28.4,87,29.97,7.0,West,10.4,-,N/A,,Overcast,280,2012-12-11 10:36:00
5:54 AM,32.0,28.9,88,30.05,7.0,West,8.1,-,N/A,,Overcast,270,2012-12-11 10:54:00
6:54 AM,32.0,28.9,88,30.07,7.0,West,9.2,-,N/A,,Overcast,270,2012-12-11 11:54:00
7:47 AM,32.0,28.4,87,30.03,8.0,West,9.2,-,N/A,,Overcast,280,2012-12-11 12:47:00
7:54 AM,32.0,28.0,85,30.11,8.0,West,9.2,-,N/A,,Overcast,280,2012-12-11 12:54:00
8:54 AM,32.0,26.1,79,30.12,10.0,West,6.9,-,N/A,,Overcast,260,2012-12-11 13:54:00
9:54 AM,32.0,26.1,79,30.16,10.0,West,8.1,-,N/A,,Overcast,280,2012-12-11 14:54:00
10:54 AM,30.9,27.0,85,30.18,5.0,West,6.9,-,0.00,Snow,Light Snow,280,2012-12-11 15:54:00
11:52 AM,32.0,26.6,80,30.10,10.0,WSW,9.2,-,0.00,,Overcast,250,2012-12-11 16:52:00
11:54 AM,32.0,26.1,79,30.18,10.0,West,9.2,-,0.00,,Overcast,260,2012-12-11 16:54:00
12:54 PM,32.0,26.1,79,30.18,10.0,West,9.2,-,N/A,,Overcast,280,2012-12-11 17:54:00
1:04 PM,33.8,26.6,75,30.10,10.0,West,9.2,-,N/A,,Overcast,270,2012-12-11 18:04:00
1:54 PM,33.1,25.0,72,30.17,10.0,WSW,8.1,-,N/A,,Overcast,250,2012-12-11 18:54:00
2:31 PM,32.0,24.8,75,30.10,10.0,WSW,10.4,-,N/A,,Overcast,250,2012-12-11 19:31:00
2:54 PM,33.1,25.0,72,30.17,10.0,West,8.1,-,N/A,,Overcast,260,2012-12-11 19:54:00
3:52 PM,32.0,23.0,69,30.11,10.0,SW,10.4,-,N/A,,Overcast,230,2012-12-11 20:52:00
3:54 PM,32.0,23.0,69,30.19,10.0,SW,10.4,-,N/A,,Overcast,220,2012-12-11 20:54:00
4:54 PM,30.9,21.0,67,30.22,10.0,West,8.1,-,N/A,,Mostly Cloudy,260,2012-12-11 21:54:00
5:29 PM,30.2,21.2,69,30.14,10.0,SW,6.9,-,N/A,,Scattered Clouds,230,2012-12-11 22:29:00
5:54 PM,27.0,21.9,81,30.23,10.0,SSW,5.8,-,N/A,,Clear,210,2012-12-11 22:54:00
6:54 PM,28.0,21.9,78,30.25,10.0,SSW,4.6,-,N/A,,Clear,210,2012-12-11 23:54:00
7:54 PM,27.0,21.9,81,30.25,10.0,South,5.8,-,N/A,,Clear,190,2012-12-12 00:54:00
8:54 PM,27.0,21.9,81,30.27,10.0,South,4.6,-,N/A,,Clear,190,2012-12-12 01:54:00
9:54 PM,27.0,23.0,85,30.27,9.0,SSW,3.5,-,N/A,,Clear,200,2012-12-12 02:54:00
10:54 PM,26.1,21.9,84,30.30,10.0,SSW,3.5,-,N/A,,Clear,200,2012-12-12 03:54:00
11:54 PM,24.1,21.0,88,30.31,10.0,SSW,4.6,-,N/A,,Clear,210,2012-12-12 04:54:00